www.pogodaiklimat.ru
ПОГОДА в Линдонвилле
Время
и дата
09:35 20.05
09:55 20.05
10:15 20.05
10:35 20.05
10:55 20.05
11:15 20.05
11:35 20.05
11:55 20.05
12:15 20.05
12:35 20.05
12:55 20.05
13:15 20.05
13:35 20.05
13:55 20.05
14:15 20.05
14:35 20.05
14:55 20.05
15:15 20.05
15:35 20.05
15:55 20.05
16:15 20.05
16:35 20.05
16:55 20.05
17:15 20.05
17:35 20.05
17:55 20.05
18:15 20.05
18:35 20.05
18:55 20.05
19:15 20.05
19:35 20.05
19:55 20.05
20:15 20.05
20:35 20.05
20:55 20.05
21:15 20.05
21:35 20.05
21:55 20.05
22:15 20.05
22:35 20.05
22:55 20.05
23:15 20.05
23:35 20.05
23:55 20.05
00:15 21.05
00:35 21.05
00:55 21.05
01:15 21.05
Ветер
(напр.,м/с)
Видим. Явления Облачность Т
(С)
Тd
(С)
f
(%)
Тe
(С)
Тes
(С)
Комфортность P
(гПа)
Po
(гПа)
Тmin
(С)
Tmax
(С)
R
(мм)
R24
(мм)
S
(см)
ЮВ 2 16 км ясно +16.7 +12.1 74 +17 +29 опасность
простуды
974.6
штиль 0 16 км ясно +17.6 +12.6 72 +18 +34 опасность
простуды
974.6
Ю 2 16 км ясно +18.5 +12.8 69 +20 +35 опасность
простуды
974.6
Ю 2 16 км ясно +19.8 +13.8 68 +22 +38 комфорт 974.6
Ю 2 16 км ясно +20.1 +13.2 64 +23 +38 комфорт 974.2
ЮВ 2 16 км ясно +21.3 +13.9 63 +24 +42 комфорт 974.2
В 2 16 км ясно +21.6 +13.9 62 +24 +42 комфорт 973.9
штиль 0 16 км ясно +22.7 +13.8 57 +26 +50 жарко 973.6
ЮВ 2 16 км ясно +23.5 +14.9 58 +26 +45 жарко 973.3
штиль 0 16 км ясно +24.1 +14.3 54 +27 +52 опасность
солнечного
удара
973.3
ЮВ 2 16 км ясно +24.8 +14.5 53 +27 +46 жарко 972.9 +11.7 +24.8
В 2 16 км ясно +24.9 +14.5 52 +27 +45 жарко 972.6
В 2 16 км ясно +25.3 +14.7 52 +28 +45 жарко 972.6
ЮВ 2 16 км ясно +25.4 +15.1 53 +28 +45 жарко 972.3
В 2 16 км ясно +25.7 +14.8 51 +28 +43 жарко 972.3
В 3 16 км ясно +25.5 +14.4 50 +28 +40 жарко 972.0
В 2 16 км ясно +25.7 +14.3 49 +28 +42 жарко 971.6
ЮВ 3 16 км ясно +26.4 +14.8 49 +29 +38 жарко 971.6
ЮВ 4 11 км ясно +26.4 +14.4 48 +29 +36 жарко 971.6
В 3 16 км ясно +26.5 +14.4 47 +29 +38 жарко 971.3
Ю 4 16 км ясно +26.1 +13.9 47 +28 +33 жарко 971.3
ЮВ 3 16 км ясно +25.2 +13.9 50 +28 +33 жарко 971.3
Ю 3 16 км 5/5 1950 м +25.0 +13.9 50 +27 +30 жарко 971.3
ЮВ 2 16 км 5/5 1950 м +25.4 +13.8 49 +28 +29 жарко 971.3
ЮВ 3 16 км 5/5 1950 м +24.3 +14.2 53 +27 +28 жарко 971.0
ЮВ 2 16 км ясно +24.8 +14.5 53 +27 +31 жарко 971.0
ЮВ 2 16 км ясно +24.1 +14.2 54 +27 +28 жарко 971.0
ЮВ 2 16 км ясно +23.7 +14.1 55 +26 +27 жарко 971.0
ЮВ 2 16 км ясно +23.2 +13.7 55 +27 +28 душно 971.3 +23.2 +26.7
ЮВ 2 16 км ясно +22.3 +13.5 57 +25 +25 комфорт 971.0
ЮВ 2 16 км ясно +22.2 +13.1 56 +25 +25 комфорт 971.3
Ю 2 16 км ясно +22.2 +13.0 56 +25 +25 комфорт 971.3
штиль 0 16 км ясно +21.3 +13.1 59 +24 +24 комфорт 971.6
ЮВ 2 16 км ясно +21.5 +12.7 57 +24 +24 комфорт 971.6
В 2 16 км ясно +20.2 +13.0 63 +23 +23 комфорт 972.0
В 2 16 км ясно +20.0 +13.5 66 +23 +23 комфорт 972.0
В 2 16 км ясно +19.0 +13.7 71 +21 +21 комфорт 972.0
В 3 16 км ясно +19.0 +13.9 72 +20 +20 972.0
ЮВ 2 16 км ясно +19.0 +13.7 71 +21 +21 комфорт 972.0
В 2 16 км 5/5 1800 м +19.0 +13.7 71 +21 +21 комфорт 971.6
ЮВ 2 16 км 5/5 1800 м +18.5 +13.8 74 +20 +20 971.6
В 2 16 км ясно +18.3 +13.5 74 +19 +19 971.6
В 2 16 км ясно +17.9 +13.5 75 +18 +18 971.6
ЮВ 2 16 км 5/0 2100 m
[Ac]
+17.3 +13.5 78 +18 +18 971.6
штиль 0 16 км 5/0 2100 m
[Ac]
+17.0 +13.3 79 +17 +17 971.3
штиль 0 16 км ясно +17.0 +13.5 80 +17 +17 971.3
В 2 16 км ясно +16.4 +13.3 82 +17 +17 971.0 +16.4 +23.0
В 2 16 км ясно +16.1 +13.1 82 +16 +16 971.0
Местоположение метеостанции Caledonia County Airport: широта 44.5691 долгота -72.0180 высота над уровнем моря 362 м.
В архиве по умолчанию представлена погода в Линдонвилле за последние 1-2 суток. Обновление информации о фактической погоде в базе происходит ежечасно! Архивные данные за месяц целиком и за предыдущие месяцы Вы можете получить, выбрав интересующий диапазон дат из раскрывающегося списка и нажав кнопку "Ввод!".
Внимание! Архив погоды МЕТАР в базе сайта по станциям, не включенным в климатический монитор, хранится не более 60 дней. Нет смысла пытаться выбрать более раннюю дату.
*Определитесь, кто Вы:
Внимание! Время в таблицах - местное (без учета летнего времени). Для получения всемирного времени необходимо вычесть поправку, которая равна -5 ч.
Смотрите также архив погоды в соседних городах и на ближайших метеорологических станциях:
Партнеры нашего сайта:      
Пояснения к столбцам:
  • Ветер - указаны скорость ветра в м/с - средняя за 10 мин, порывы в срок и между сроками (в фигурных скобках) и направление, откуда дует ветер: С - северный,
  • СВ - северо-восточный, В - восточный, ЮВ - юго-восточный, Ю - южный, ЮЗ - юго-западный, З - западный, СЗ - северо-западный.
  • Видимость - горизонтальная дальность видимости в метрах или километрах. При видимости от 1 до 10 км при отсутствии осадков обычно наблюдается дымка, при ухудшении видимости до 1 км и менее - туман. В сухую погоду видимость может ухудшаться дымом, пылью или мглою.
  • Явления - указаны атмосферные явления, наблюдавшиеся в срок или в последний час перед сроком; фигурными скобками обозначены явления, наблюдавшиеся между сроками (за 1-3 часа до срока); квадратными скобками обозначены град или гололедные отложения с указанием их диаметра в мм.
  • Облачность - указаны через наклонную черту общая и нижняя облачность в баллах и высота нижней границы облаков в метрах; квадратными скобками обозначены формы облаков: Ci - перистые, Cs - перисто-слоистые, Cc - перисто-кучевые, Ac - высококучевые, As - высокослоистые, Sc - слоисто-кучевые, Ns - слоисто-дождевые, Cu - кучевые, Cb - кучево-дождевые. Подробнее классификацию облаков см. в Атласе облаков (PDF).
  • T - Температура воздуха - температура, измеренная на высоте 2 м над землей.
  • Td - Температура точки росы - температура, при понижении до которой содержащийся в воздухе водяной пар достигнет насыщения.
  • f - Относительная влажность воздуха - влажноcть воздуха, измеренная на высоте 2 м над землей.
  • Te - Эффективная температура - температура, которую ощущает одетый по сезону человек в тени. Характеристика душности погоды. При расчете учитывается влияние влажности воздуха и скорости ветра на теплоощущения человека.
  • Tes - Эффективная температура на солнце - температура, которую ощущает человек, с поправкой на солнечный нагрев. Характеристика знойности погоды. Зависит от высоты солнца над горизонтом, облачности и скорости ветра. Ночью, в пасмурную погоду, а также при ветре 12 м/с и более поправка равна нулю.
  • P - Атмосферное давление - приведенное к уровню моря атмосферное давление.
  • Po - Атмосферное давление - измеренное на уровне метеостанции атмосферное давление.
  • Tmin - Минимальная температура - минимум температуры воздуха на высоте 2 м над землей.
  • Tmax - Максимальная температура - максимум температуры воздуха на высоте 2 м над землей.
  • R - Количество осадков - Количество выпавших осадков за период времени, мм. При наведении курсора мыши на число - период времени, за который выпало указанное количество осадков.
  • R24 - Количество осадков - Количество выпавших осадков за 24 часа, мм.
  • S - Снежный покров - Высота снежного покрова, см. При наведении курсора мыши на число - состояние снежного покрова и степень покрытия местности в баллах.